This is the latest recevied weather packets stored in our database for station/object N2XP-3. If no packets are shown the sender has not sent any weather packets the latest 10 day(s).
| Time | Temp. | Humidity | Pressure | Rain* | Wind** | Luminosity | Snow |
|---|---|---|---|---|---|---|---|
| 1777325018 | 21.11° C | 41% | 1020.7 hPa | 0 mm | 0.89 m/s, 153° | - | - |
| 1777323816 | 21.11° C | 40% | 1020.8 hPa | 0 mm | 0.89 m/s, 76° | - | - |
| 1777322911 | 21.67° C | 39% | 1020.7 hPa | 0 mm | 1.79 m/s, 45° | - | - |
| 1777322308 | 21.67° C | 40% | 1020.6 hPa | 0 mm | 1.34 m/s, 235° | - | - |
| 1777322008 | 21.67° C | 40% | 1020.6 hPa | 0 mm | 0.89 m/s, 193° | - | - |
| 1777321405 | 22.22° C | 38% | 1020.7 hPa | 0 mm | 1.34 m/s, 158° | - | - |
| 1777320804 | 22.22° C | 38% | 1020.6 hPa | 0 mm | 0.89 m/s, 207° | - | - |
| 1777320200 | 22.22° C | 39% | 1020.5 hPa | 0 mm | 0 m/s | - | - |
| 1777319592 | 22.22° C | 39% | 1020.6 hPa | 0 mm | 1.34 m/s, 219° | - | - |
| 1777319293 | 22.22° C | 39% | 1020.6 hPa | 0 mm | 0.89 m/s, 51° | - | - |
| 1777318993 | 22.22° C | 38% | 1020.5 hPa | 0 mm | 2.68 m/s, 108° | - | - |
| 1777318690 | 21.67° C | 39% | 1020.5 hPa | 0 mm | 0.45 m/s, 215° | - | - |
| 1777318387 | 21.67° C | 38% | 1020.6 hPa | 0 mm | 0.45 m/s, 134° | - | - |
| 1777318087 | 21.67° C | 39% | 1020.5 hPa | 0 mm | 1.34 m/s, 97° | - | - |
| 1777317782 | 21.67° C | 39% | 1020.3 hPa | 0 mm | 1.34 m/s, 58° | - | - |
| 1777317480 | 21.67° C | 38% | 1020.5 hPa | 0 mm | 0.45 m/s, 146° | - | - |
| 1777316874 | 22.22° C | 38% | 1020.6 hPa | 0 mm | 1.79 m/s, 138° | - | - |
| 1777316275 | 22.78° C | 39% | 1020.6 hPa | 0 mm | 0.89 m/s, 198° | - | - |
| 1777315971 | 22.22° C | 38% | 1020.6 hPa | 0 mm | 1.34 m/s, 249° | - | - |
| 1777315465 | 21.67° C | 39% | 1020.6 hPa | 0 mm | 2.24 m/s, 231° | - | - |
| 1777315373 | 21.67° C | 39% | 1020.6 hPa | 0 mm | 2.24 m/s, 231° | - | - |
| 1777314771 | 22.22° C | 37% | 1020.7 hPa | 0 mm | 0.89 m/s, 191° | - | - |
| 1777314166 | 22.22° C | 38% | 1020.9 hPa | 0 mm | 1.79 m/s, 194° | - | - |
| 1777313863 | 22.22° C | 39% | 1020.9 hPa | 0 mm | 0.89 m/s, 304° | - | - |
| 1777313799 | 21.67° C | 38% | 1021 hPa | 0 mm | 1.34 m/s, 75° | - | - |
* Rain latest hour (hover to see other rain measurements)
** Current wind speed in m/s (hover to see current wind gust speed)